Location: Bretagne
(43.8474°N, 0.4650°W)
Time: 11:16:44
(UTC+00:00)

NOSS 3-4 (A) - Pass Details

Date: 15 January 2026
Orbit: 769 x 1442 km, 63.4° (Epoch: 10 January)

Event Time Altitude Azimuth Distance (km) Brightness Sun altitude
Rises 18:56:19 0° 243° (WSW) 3,237 7.5 -22.3°
Reaches altitude 10° 18:58:49 10° 252° (WSW) 2,336 6.6 -22.7°
Maximum altitude 19:03:42 36° 319° (NW) 1,278 4.4 -23.6°
Enters shadow 19:06:56 21° 13° (NNE) 1,878 4.8 -24.2°
